Location: Spruce Knob
(38.6995°N, 79.5330°W)
Time: 20:26:42
(UTC-04:00)

A-11 Canister half - Pass Details

Date: 04 February 2022
Orbit: 1513 x 1686 km, 47.2° (Epoch: 26 May)

Event Time Altitude Azimuth Distance (km) Brightness Sun altitude
Rises 12:13:55 0° 199° (SSW) 4,883 12.5 35.1°
Reaches altitude 10° 12:17:30 10° 191° (S) 3,877 12.4 35.1°
Maximum altitude 12:25:58 34° 131° (SE) 2,438 11.1 35.2°
Drops below altitude 10° 12:34:11 10° 72° (ENE) 3,772 11.0 35.2°
Sets 12:37:35 0° 63° (ENE) 4,735 11.3 35.2°
